Powrót do katalogu

IRIDIUM 33 DEB

AktywnyPO
NORAD 38017·DEBRIS·🇺🇸 United States

Wystrzelony Sep 14, 1997 z Baikonur Cosmodrome

Loading…

Następne Przeloty (najbliższe 24 godziny)

TLE

ŚwieżeSource: Space-Track

Epoka: Sep 14, 2026, 09:15 UTC

1 38017U 97051YD  26257.38562616  .00012984  00000-0  28923-2 0  9990
2 38017  86.3331  45.5664 0075257 260.7815  98.4875 14.55060423654039

Śledź IRIDIUM 33 DEB w czasie rzeczywistym z AllMySat

Download on the App Store